| time (UTC) | temp F | wind direction | speed knots | gust knots | rain 1hr in | rain 24hr in | rain mn in | humidity % | barometer mb |
| 20260831025745 | 73 | 234 | 0.0 | 0.0 | 0.00 | 1.11 | 1.10 | 93 | 1018.5 |
| 20260831024726 | 73 | 234 | 0.0 | 0.0 | 0.00 | 1.11 | 1.10 | 93 | 1018.5 |
| 20260831023700 | 73 | 234 | 0.0 | 0.0 | 0.00 | 1.11 | 1.10 | 93 | 1018.7 |
| 20260831022647 | 73 | 234 | 0.0 | 0.0 | 0.00 | 1.11 | 1.10 | 93 | 1018.7 |
| 20260831021651 | 73 | 234 | 0.0 | 0.0 | 0.00 | 1.11 | 1.10 | 93 | 1018.8 |
| 20260831020653 | 73 | 234 | 0.0 | 0.0 | 0.00 | 1.11 | 1.10 | 93 | 1018.7 |
| 20260831015704 | 73 | 234 | 0.0 | 0.0 | 0.00 | 1.11 | 1.10 | 92 | 1018.8 |
| 20260831014633 | 73 | 234 | 0.0 | 0.0 | 0.00 | 1.11 | 1.10 | 92 | 1018.9 |
| 20260831013631 | 73 | 234 | 0.0 | 0.0 | 0.00 | 1.11 | 1.10 | 92 | 1018.9 |
| 20260831012629 | 73 | 234 | 0.0 | 0.0 | 0.00 | 1.11 | 1.10 | 93 | 1018.8 |
| 20260831011557 | 73 | 234 | 0.0 | 0.0 | 0.00 | 1.11 | 1.10 | 92 | 1018.7 |
| 20260831010548 | 73 | 234 | 0.0 | 0.0 | 0.00 | 1.11 | 1.10 | 92 | 1018.6 |
| 20260831003309 | 72 | 165 | 0.0 | 2.6 | 0.64 | 1.07 | 1.08 | 90 | 1018.3 |
| 20260831002234 | 74 | 238 | 0.0 | 0.0 | 1.68 | 0.89 | 0.89 | 87 | 1019.1 |
| 20260831001222 | 75 | 238 | 0.9 | 4.3 | 2.35 | 0.56 | 0.61 | 86 | 1019.8 |
| 20260831000203 | 77 | 304 | 2.6 | 8.7 | 2.53 | 0.32 | 0.34 | 82 | 1020.0 |
| 20260830235142 | 81 | 304 | 3.5 | 8.7 | 0.00 | 0.00 | 0.00 | 74 | 1019.8 |
| 20260830234128 | 83 | 312 | 1.7 | 7.8 | 0.00 | 0.00 | 0.00 | 71 | 1018.9 |
| 20260830233113 | 84 | 202 | 1.7 | 8.7 | 0.00 | 0.00 | 0.00 | 70 | 1018.0 |
| 20260830232116 | 84 | 190 | 2.6 | 8.7 | 0.00 | 0.00 | 0.00 | 68 | 1017.9 |
| 20260830230009 | 85 | 194 | 1.7 | 7.0 | 0.00 | 0.00 | 0.00 | 67 | 1018.0 |
| 20260830224945 | 85 | 176 | 0.0 | 4.3 | 0.00 | 0.00 | 0.00 | 66 | 1018.0 |
| 20260830222829 | 86 | 165 | 1.7 | 7.0 | 0.00 | 0.00 | 0.00 | 64 | 1018.0 |
| 20260830220653 | 87 | 195 | 1.7 | 6.1 | 0.00 | 0.00 | 0.00 | 62 | 1017.7 |
| 20260830215646 | 87 | 216 | 2.6 | 7.0 | 0.00 | 0.00 | 0.00 | 61 | 1017.5 |
| 20260830214702 | 88 | 178 | 2.6 | 7.0 | 0.00 | 0.00 | 0.00 | 61 | 1017.6 |
| 20260830213708 | 88 | 167 | 1.7 | 6.1 | 0.00 | 0.00 | 0.00 | 60 | 1017.6 |
| 20260830212722 | 88 | 238 | 0.9 | 6.1 | 0.00 | 0.00 | 0.00 | 60 | 1017.7 |
| 20260830211725 | 88 | 185 | 0.9 | 5.2 | 0.00 | 0.00 | 0.00 | 60 | 1017.6 |
| 20260830210748 | 88 | 211 | 0.9 | 4.3 | 0.00 | 0.00 | 0.00 | 60 | 1017.6 |
| 20260830205730 | 89 | 226 | 0.0 | 1.7 | 0.00 | 0.00 | 0.00 | 58 | 1017.6 |
| 20260830204720 | 90 | 200 | 0.9 | 7.8 | 0.00 | 0.00 | 0.00 | 57 | 1017.6 |
| 20260830203719 | 90 | 195 | 2.6 | 7.8 | 0.00 | 0.00 | 0.00 | 55 | 1017.8 |
| 20260830202727 | 91 | 225 | 1.7 | 6.1 | 0.00 | 0.00 | 0.00 | 54 | 1017.8 |
| 20260830201735 | 92 | 277 | 1.7 | 6.1 | 0.00 | 0.00 | 0.00 | 52 | 1018.0 |
| 20260830194512 | 90 | 289 | 2.6 | 8.7 | 0.00 | 0.00 | 0.00 | 54 | 1017.9 |
| 20260830193506 | 89 | 237 | 1.7 | 7.8 | 0.00 | 0.00 | 0.00 | 55 | 1018.1 |
| 20260830192514 | 89 | 234 | 4.3 | 7.8 | 0.00 | 0.00 | 0.00 | 54 | 1018.2 |
| 20260830190330 | 90 | 243 | 2.6 | 9.6 | 0.00 | 0.00 | 0.00 | 55 | 1018.6 |
| 20260830183142 | 90 | 278 | 3.5 | 9.6 | 0.00 | 0.00 | 0.00 | 57 | 1019.3 |
| 20260830182135 | 89 | 246 | 3.5 | 9.6 | 0.00 | 0.00 | 0.00 | 57 | 1019.5 |
| 20260830181159 | 88 | 254 | 1.7 | 7.8 | 0.00 | 0.00 | 0.00 | 62 | 1019.7 |
| 20260830180211 | 86 | 289 | 2.6 | 7.8 | 0.00 | 0.00 | 0.00 | 64 | 1019.9 |
| 20260830175202 | 86 | 246 | 0.9 | 5.2 | 0.00 | 0.00 | 0.00 | 63 | 1020.2 |
| 20260830174158 | 86 | 261 | 0.0 | 3.5 | 0.00 | 0.00 | 0.00 | 65 | 1020.2 |
| 20260830173131 | 86 | 254 | 1.7 | 7.8 | 0.00 | 0.00 | 0.00 | 63 | 1020.4 |
| 20260830171020 | 87 | 203 | 2.6 | 8.7 | 0.00 | 0.00 | 0.00 | 61 | 1020.6 |
| 20260830165954 | 88 | 188 | 1.7 | 8.7 | 0.00 | 0.00 | 0.00 | 61 | 1020.6 |
| 20260830164925 | 87 | 220 | 1.7 | 10.4 | 0.00 | 0.00 | 0.00 | 64 | 1020.7 |
| 20260830163939 | 86 | 254 | 4.3 | 10.4 | 0.00 | 0.00 | 0.00 | 65 | 1020.7 |
| 20260830162938 | 87 | 224 | 2.6 | 8.7 | 0.00 | 0.00 | 0.00 | 64 | 1020.9 |
| 20260830161920 | 85 | 236 | 2.6 | 8.7 | 0.00 | 0.00 | 0.00 | 68 | 1021.0 |
| 20260830160920 | 84 | 172 | 2.6 | 8.7 | 0.00 | 0.00 | 0.00 | 68 | 1021.1 |
| 20260830155910 | 85 | 184 | 3.5 | 8.7 | 0.00 | 0.00 | 0.00 | 65 | 1021.2 |
| 20260830154932 | 85 | 289 | 1.7 | 7.8 | 0.00 | 0.00 | 0.00 | 67 | 1021.3 |
| 20260830153903 | 83 | 262 | 1.7 | 7.8 | 0.00 | 0.00 | 0.00 | 70 | 1021.3 |
| 20260830152857 | 82 | 196 | 2.6 | 8.7 | 0.00 | 0.00 | 0.00 | 73 | 1021.4 |
| 20260830151915 | 82 | 281 | 2.6 | 8.7 | 0.00 | 0.00 | 0.00 | 73 | 1021.3 |
| 20260830150902 | 80 | 246 | 2.6 | 8.7 | 0.00 | 0.00 | 0.00 | 77 | 1021.3 |
| 20260830145907 | 80 | 260 | 0.9 | 8.7 | 0.00 | 0.00 | 0.00 | 78 | 1021.4 |
| 20260830144913 | 79 | 230 | 1.7 | 6.1 | 0.00 | 0.00 | 0.00 | 79 | 1021.3 |
| 20260830142726 | 78 | 178 | 1.7 | 7.0 | 0.00 | 0.00 | 0.00 | 82 | 1021.3 |
| 20260830141715 | 77 | 186 | 0.9 | 8.7 | 0.00 | 0.00 | 0.00 | 83 | 1021.3 |
| 20260830140652 | 77 | 212 | 1.7 | 8.7 | 0.00 | 0.00 | 0.00 | 84 | 1021.3 |
| 20260830135701 | 76 | 169 | 1.7 | 7.0 | 0.00 | 0.00 | 0.00 | 85 | 1021.4 |
| 20260830134707 | 76 | 290 | 1.7 | 7.0 | 0.00 | 0.00 | 0.00 | 85 | 1021.6 |
| 20260830133647 | 76 | 205 | 1.7 | 7.0 | 0.00 | 0.00 | 0.00 | 85 | 1021.7 |
| 20260830132642 | 76 | 267 | 0.9 | 7.0 | 0.00 | 0.00 | 0.00 | 86 | 1021.8 |
| 20260830131658 | 76 | 218 | 1.7 | 7.0 | 0.00 | 0.00 | 0.00 | 86 | 1021.9 |
| 20260830130705 | 75 | 175 | 0.9 | 6.1 | 0.00 | 0.00 | 0.00 | 86 | 1021.9 |
| 20260830125650 | 75 | 169 | 0.0 | 9.6 | 0.00 | 0.00 | 0.00 | 86 | 1022.1 |
| 20260830124625 | 75 | 173 | 1.7 | 9.6 | 0.00 | 0.00 | 0.00 | 86 | 1022.1 |
| 20260830123618 | 75 | 179 | 0.9 | 6.1 | 0.00 | 0.00 | 0.00 | 87 | 1022.1 |
| 20260830122619 | 75 | 207 | 0.9 | 7.0 | 0.00 | 0.00 | 0.00 | 87 | 1022.1 |
| 20260830121544 | 74 | 217 | 1.7 | 7.0 | 0.00 | 0.00 | 0.00 | 87 | 1022.1 |
| 20260830120535 | 74 | 167 | 1.7 | 7.0 | 0.00 | 0.00 | 0.00 | 88 | 1022.0 |
| 20260830115548 | 74 | 204 | 1.7 | 7.0 | 0.00 | 0.00 | 0.00 | 88 | 1022.0 |
| 20260830114539 | 74 | 198 | 0.9 | 7.0 | 0.00 | 0.00 | 0.00 | 88 | 1022.0 |
| 20260830113521 | 74 | 207 | 1.7 | 5.2 | 0.00 | 0.00 | 0.00 | 88 | 1022.1 |
| 20260830112446 | 74 | 234 | 0.9 | 5.2 | 0.00 | 0.00 | 0.00 | 88 | 1022.1 |
| 20260830111422 | 74 | 230 | 0.9 | 5.2 | 0.00 | 0.00 | 0.00 | 88 | 1022.2 |
| 20260830110355 | 74 | 191 | 0.0 | 9.6 | 0.00 | 0.00 | 0.00 | 88 | 1022.2 |
| 20260830105335 | 74 | 263 | 0.9 | 9.6 | 0.00 | 0.00 | 0.00 | 88 | 1022.3 |
| 20260830104302 | 74 | 190 | 0.9 | 6.1 | 0.00 | 0.00 | 0.00 | 88 | 1022.1 |
| 20260830103253 | 74 | 184 | 1.7 | 6.1 | 0.00 | 0.00 | 0.00 | 88 | 1022.0 |
| 20260830102223 | 74 | 173 | 0.0 | 5.2 | 0.00 | 0.00 | 0.00 | 88 | 1021.9 |
| 20260830100127 | 74 | 262 | 0.0 | 0.0 | 0.00 | 0.00 | 0.00 | 88 | 1021.9 |
| 20260830095124 | 74 | 191 | 0.0 | 0.9 | 0.00 | 0.00 | 0.00 | 88 | 1021.9 |
| 20260830093029 | 74 | 246 | 0.0 | 0.0 | 0.00 | 0.00 | 0.00 | 87 | 1021.9 |
| 20260830092011 | 74 | 194 | 0.0 | 0.0 | 0.00 | 0.00 | 0.00 | 87 | 1021.9 |
| 20260830090953 | 74 | 226 | 0.0 | 2.6 | 0.00 | 0.00 | 0.00 | 87 | 1021.8 |
| 20260830085936 | 74 | 188 | 0.0 | 4.3 | 0.00 | 0.00 | 0.00 | 87 | 1021.7 |
| 20260830083721 | 74 | 170 | 0.0 | 3.5 | 0.00 | 0.00 | 0.00 | 87 | 1021.8 |
| 20260830082726 | 74 | 150 | 0.0 | 3.5 | 0.00 | 0.00 | 0.00 | 86 | 1021.9 |
| 20260830081704 | 74 | 213 | 0.0 | 3.5 | 0.00 | 0.00 | 0.00 | 86 | 1021.9 |
| 20260830080646 | 74 | 194 | 0.0 | 0.0 | 0.00 | 0.00 | 0.00 | 85 | 1021.9 |
| 20260830075635 | 73 | 203 | 0.9 | 5.2 | 0.00 | 0.00 | 0.00 | 85 | 1021.9 |
| 20260830073514 | 73 | 181 | 0.9 | 6.1 | 0.00 | 0.00 | 0.00 | 83 | 1021.9 |
| 20260830070228 | 74 | 185 | 0.0 | 3.5 | 0.00 | 0.00 | 0.00 | 79 | 1022.1 |
| 20260830064040 | 74 | 172 | 0.0 | 2.6 | 0.00 | 0.00 | 0.00 | 76 | 1022.1 |
| 20260830063019 | 74 | 195 | 0.0 | 2.6 | 0.00 | 0.00 | 0.00 | 75 | 1022.2 |
| 20260830062040 | 74 | 195 | 0.0 | 0.0 | 0.00 | 0.00 | 0.00 | 75 | 1022.4 |
| 20260830061033 | 74 | 180 | 0.0 | 2.6 | 0.00 | 0.00 | 0.00 | 74 | 1022.5 |
| 20260830054859 | 74 | 180 | 0.0 | 2.6 | 0.00 | 0.00 | 0.00 | 73 | 1022.7 |
| 20260830053826 | 74 | 180 | 0.0 | 0.9 | 0.00 | 0.00 | 0.00 | 73 | 1022.6 |
| 20260830052809 | 74 | 180 | 0.0 | 3.5 | 0.00 | 0.00 | 0.00 | 72 | 1022.7 |
| 20260830050621 | 74 | 184 | 0.0 | 0.0 | 0.00 | 0.00 | 0.00 | 72 | 1022.6 |
| 20260830045639 | 74 | 184 | 0.0 | 4.3 | 0.00 | 0.00 | 0.00 | 71 | 1022.5 |
| 20260830044637 | 74 | 175 | 0.0 | 1.7 | 0.00 | 0.00 | 0.00 | 72 | 1022.4 |
| 20260830043626 | 74 | 175 | 0.0 | 1.7 | 0.00 | 0.00 | 0.00 | 71 | 1022.5 |
| 20260830042638 | 74 | 175 | 0.0 | 0.9 | 0.00 | 0.00 | 0.00 | 71 | 1022.4 |
| 20260830040500 | 74 | 175 | 0.0 | 0.9 | 0.00 | 0.00 | 0.00 | 72 | 1022.2 |
| 20260830035452 | 73 | 175 | 0.0 | 0.9 | 0.00 | 0.00 | 0.00 | 73 | 1022.2 |
| 20260830032259 | 72 | 175 | 0.0 | 0.0 | 0.00 | 0.00 | 0.00 | 75 | 1022.2 |
| 20260830031237 | 73 | 175 | 0.0 | 0.0 | 0.00 | 0.00 | 0.00 | 74 | 1022.2 |